Regional Weather Roundup
Issued by NWS

Home | Current Version | Previous Version | Graphics & Text | Print | Product List | Glossary On
Versions: 1 2 3 4 5 6 7 8 9 10 11 12 13 14 15 16 17 18 19 20 21 22 23 24 25 26 27 28 29 30 31 32 33 34 35 36 37 38 39 40 41 42 43 44 45 46 47 48 49 50
959
ASUS43 KMKX 061500
RWRWI

WISCONSIN REGIONAL WEATHER ROUNDUP
NATIONAL WEATHER SERVICE MILWAUKEE/SULLIVAN WI
900 AM CST SAT FEB 06 2016

NOTE: "FAIR" INDICATES FEW OR NO CLOUDS BELOW 12,000 FEET WITH NO
SIGNIFICANT WEATHER AND/OR OBSTRUCTIONS TO VISIBILITY.

WIZ001-002-006>008-014>016-023>028-061600-
NORTHWEST WISCONSIN

CITY           SKY/WX    TMP DP  RH WIND       PRES   REMARKS
SUPERIOR ARPT  CLOUDY    22  18  86 SW6       30.05F WCI  14
ASHLAND        PTSUNNY   23  18  81 SW8       30.06F WCI  14
HAYWARD        CLOUDY    23  18  81 S8        30.05F WCI  14
SIREN          CLOUDY    24  20  86 SW8       30.08F WCI  15
CUMBERLAND     CLOUDY    23  21  93 SW10      30.08S FOG     WCI  12
RICE LAKE      CLOUDY    24  21  87 SW6       30.10F WCI  17
CHETEK         CLOUDY    25  21  86 SW5       30.10S WCI  19
LADYSMITH      CLOUDY    24  22  92 SW8       30.09F FOG     WCI  15
EAU CLAIRE     NOT AVBL
MENOMONIE      CLOUDY    27  22  83 SW7       30.13S WCI  19
NEW RICHMOND   CLOUDY    24  21  87 SW8       30.11S WCI  15
OSCEOLA        CLOUDY    25  22  88 S7        30.13S WCI  18
$$

WIZ003>005-009-010-017-018-061600-
NORTH CENTRAL WISCONSIN

CITY           SKY/WX    TMP DP  RH WIND       PRES   REMARKS
MANITOWISH WTR CLOUDY    21  19  94 SW10      30.01F WCI  10
ARBOR VITAE    CLOUDY    22  19  89 SW8       30.03F FOG     WCI  13
WOODRUFF       CLOUDY    22  19  89 SW8       30.03F FOG     WCI  13
RHINELANDER    CLOUDY    22  19  89 SW7       30.04F WCI  13
EAGLE RIVER    CLOUDY    21  19  91 W9        30.03F WCI  11
LAND O LAKES   CLOUDY    22  18  85 SW8       30.02F WCI  12
PHILLIPS       CLOUDY    22  19  91 SW6       30.04F WCI  14
TOMAHAWK       CLOUDY    22  19  89 SW5       30.07F FOG     WCI  16
MEDFORD        CLOUDY    22  21  94 W5        30.08S FOG     WCI  16
MERRILL        CLOUDY    23  21  91 W10       30.10S WCI  12
$$

WIZ029-030-035-036-043>047-061600-
CENTRAL WISCONSIN

CITY           SKY/WX    TMP DP  RH WIND       PRES   REMARKS
WAUSAU         CLOUDY    25  21  85 W7        30.08F WCI  17
MOSINEE        CLOUDY    25  23  93 CALM      30.12F
MARSHFIELD     CLOUDY    26  21  81 W7        30.10F HAZE    WCI  18
STEVENS POINT  CLOUDY    23  22  93 SW5       30.13F FOG     WCI  17
WAUPACA        CLOUDY    28  24  82 SW8       30.16S WCI  20
WAUTOMA        NOT AVBL
WISC RAPIDS    CLOUDY    26  22  84 W6        30.15F WCI  19
CAMP DOUGLAS   CLOUDY    27  27 100 W9        30.15F WCI  17
$$

WIZ011>013-019>022-031-037>040-048>050-061600-
NORTHEAST WISCONSIN

CITY           SKY/WX    TMP DP  RH WIND       PRES   REMARKS
ANTIGO         CLOUDY    22  20  95 W8        30.08S FOG     WCI  12
SHAWANO        CLOUDY    28  22  80 SW8       30.14S WCI  19
OCONTO         CLOUDY    26  22  88 W8        30.14F WCI  17
STURGEON BAY   CLOUDY    25  19  80 W10       30.16S WCI  15
GREEN BAY      CLOUDY    26  22  84 W14       30.16S WCI  14
MANITOWOC      NOT AVBL
APPLETON       CLOUDY    27  21  80 SW8       30.14  WCI  18
CLINTONVILLE   CLOUDY    27  21  80 W8        30.15S WCI  18
OSHKOSH        CLOUDY    28  21  75 VRB7      30.17R WCI  21
$$

WIZ032>034-041-042-053>061-061600-
SOUTHWEST WISCONSIN

CITY           SKY/WX    TMP DP  RH WIND       PRES   REMARKS
LA CROSSE      CLOUDY    29  22  75 SW12      30.17F WCI  19
SPARTA         CLOUDY    28  25  89 SW3       30.18S
VIROQUA        CLOUDY    27  26  96 W16       30.15F WCI  15
BOSCOBEL       CLOUDY    30  28  92 SW7       30.21F WCI  23
PRAIRIE DU CHI CLOUDY    30  25  81 W6        30.22S WCI  24
PLATTEVILLE    CLOUDY    29  26  90 SW7       30.20S WCI  22
$$

WIZ056-057-062-063-064-067-068-061600-
SOUTH CENTRAL WISCONSIN

CITY           SKY/WX    TMP DP  RH WIND       PRES   REMARKS
REEDSBURG      CLOUDY    27  25  89 SW8       30.18S WCI  19
BARABOO/DELLS  CLOUDY    27  23  84 SW7       30.17S WCI  20
LONE ROCK      NOT AVBL
MINERAL POINT  CLOUDY    30  28  93 SW8       30.18F FOG     WCI  23
MADISON        CLOUDY    27  22  81 SW5       30.19F WCI  22
MIDDLETON      CLOUDY    29  24  79 SW8       30.20S WCI  21
WATERTOWN      CLOUDY    28  23  84 SW9       30.19F WCI  19
MONROE         CLOUDY    28  25  86 SW13      30.19F WCI  18
JANESVILLE     CLOUDY    30  25  80 SW9       30.22F WCI  22
$$

WIZ051-052-058>065-066-070>072-061600-
SOUTHEAST WISCONSIN

CITY           SKY/WX    TMP DP  RH WIND       PRES   REMARKS
MILWAUKEE      PTSUNNY   30  21  69 SW12      30.21F WCI  20
WAUKESHA       CLOUDY    27  19  74 SW3       30.20F
MILWAUKEE/TIMM CLOUDY    28  19  69 SW9       30.20F WCI  20
RACINE         SUNNY     30  22  72 SW9       30.23F WCI  22
BURLINGTON     PTSUNNY   26  21  80 SW9       30.22F WCI  17
KENOSHA        SUNNY     29  22  75 SW12      30.22F WCI  19
FOND DU LAC    CLOUDY    28  21  75 SW8       30.17S WCI  20
SHEBOYGAN      CLOUDY    29  22  75 W14       30.17S WCI  18
WEST BEND      CLOUDY    28  21  74 SW9       30.18S WCI  20
JUNEAU         CLOUDY    27  22  82 SW9       30.19F WCI  17
$$

LSZ147-162-061600-
LAKE SUPERIOR

STATION/POSITION TIME  TEMP    WIND        PRES    WAVE
                       AIR SEA DIR/SP/G            HT/PER
                 (UTC) (F)     (DEG/KT/KT) (MB)    (FT/S)
DEVILS ISLAND    1400   26     240/ 20/ 24 1018.4S
SAXON HARBOR     1400   24                 1017.6
$$

LMZ867-665-643>646-061600-
LAKE MICHIGAN

STATION/POSITION TIME  TEMP    WIND        PRES    WAVE
                       AIR SEA DIR/SP/G            HT/PER
                 (UTC) (F)     (DEG/KT/KT) (MB)    (FT/S)
CHAMBERS ISLAND  1400   26     210/  6/ 12 1020.3S
ALGOMA LAKESHORE 1341          280/  9/ 12   N/A
KEWAUNEE LAKESHO 1400   27     270/ 13/ 16 1020.3S
SHEBOYGAN LAKESH 1400   29     240/ 12/ 16 1023.0F
PORT WASHINGTON  1400   30     260/ 10/ 12 1023.4S
MILWAUKEE LAKESH 1410   29     250/  8/ 10   N/A
KENOSHA   LAKESH 1400   28     240/  6/ 11 1024.0R
$$

TC  - TEMPERATURE IN CELSIUS
VSB - VISIBILITY IN STATUTE MILES
WCI - WIND CHILL INDEX
HX  - HEAT INDEX





USA.gov is the U.S. government's official web portal to all federal, state and local government web resources and services.